This is the latest recevied weather packets stored in our database for station/object KC8SWY-15. If no packets are shown the sender has not sent any weather packets the latest 10 day(s).
| Time | Temp. | Humidity | Pressure | Rain* | Wind** | Luminosity | Snow |
|---|---|---|---|---|---|---|---|
| 1788592225 | 19.44° C | 94% | 1011 hPa | 12.45 mm | - | - | - |
| 1788591925 | 19.44° C | 94% | 1010.8 hPa | 12.45 mm | - | - | - |
| 1788591674 | 19.44° C | 94% | 1010.9 hPa | 12.7 mm | - | - | - |
| 1788591625 | 19.44° C | 94% | 1010.9 hPa | 12.7 mm | - | - | - |
| 1788591325 | 19.44° C | 94% | 1010.9 hPa | 12.7 mm | - | - | - |
| 1788591055 | 19.44° C | 94% | 1011.1 hPa | 12.7 mm | - | - | - |
| 1788590822 | 19.44° C | 93% | 1011.5 hPa | 12.95 mm | - | - | - |
| 1788590725 | 19.44° C | 93% | 1011.5 hPa | 12.95 mm | - | - | - |
| 1788590425 | 19.44° C | 93% | 1011.9 hPa | 14.22 mm | - | - | - |
| 1788590125 | 19.44° C | 93% | 1012.2 hPa | 14.48 mm | - | - | - |
| 1788589825 | 20° C | 92% | 1012.6 hPa | 14.73 mm | - | - | - |
| 1788589525 | 20° C | 91% | 1012.8 hPa | 13.97 mm | - | - | - |
| 1788589246 | 20.56° C | 92% | 1014.2 hPa | 9.91 mm | - | - | - |
| 1788589000 | 21.11° C | 92% | 1013.7 hPa | 8.13 mm | - | - | - |
| 1788588925 | 21.11° C | 92% | 1013.7 hPa | 8.13 mm | - | - | - |
| 1788588625 | 21.11° C | 93% | 1013.8 hPa | 5.08 mm | - | - | - |
| 1788588325 | 21.11° C | 94% | 1013.7 hPa | 5.08 mm | - | - | - |
| 1788588025 | 21.11° C | 94% | 1013.4 hPa | 4.83 mm | - | - | - |
| 1788587725 | 21.11° C | 94% | 1012.2 hPa | 5.08 mm | - | - | - |
| 1788587454 | 21.11° C | 94% | 1012.2 hPa | 5.08 mm | - | - | - |
| 1788587125 | 21.11° C | 93% | 1012 hPa | 5.08 mm | - | - | - |
| 1788586825 | 21.11° C | 93% | 1012.2 hPa | 3.56 mm | - | - | - |
| 1788586525 | 21.11° C | 93% | 1012.2 hPa | 3.56 mm | - | - | - |
| 1788586317 | 21.11° C | 93% | 1012.5 hPa | 4.06 mm | - | - | - |
| 1788586225 | 21.11° C | 93% | 1012.5 hPa | 4.06 mm | - | - | - |
* Rain latest hour (hover to see other rain measurements)
** Current wind speed in m/s (hover to see current wind gust speed)